Hlavní strana
METAR-TAF:

METAR-TAF

Letiště :

First Flight Airport

Kill Devil Hills, Severní Karolína, Spojené státy americké

zeměpisná šířka: 36-01N, zeměpisná délka: 075-40W, výška: 4 m

Aktuální stav počasí

Zpráva byla vytvořena před 29 minutami, v 00:55 UTC
Jihojihozápadní vítr 4 kt
Teplota 22°C
Vlhkost vzduchu 100%
Tlak 1017 hPa
Viditelnost: 16.1 km
Oblačno až skoro zataženo ve výšce 800 ft

METAR: KFFA 300055Z AUTO 20004KT 10SM BKN008 22/22 A3002 RMK AO2 T02210221

Čas: 21:24 (01:24 UTC)


TAF: chybějící

Stav a předpovědi počasí z více než 4 000 letišť (zprávy METAR a TAF).

Červené a žluté tečky na mapě představují dostupné meteorologické stanice.

Když kurzor umístíte na tečku, zobrazí se název stanice.

Pak kliknutím zobrazíte stav a předpověď počasí.

Chcete-li změnit mapu, kliknutím na zelené tlačítko se znaménkem +mapu přiblížíte, kliknutím na zelené tlačítko se znaménkem – mapu oddálíte a kliknutím na zelené šipky přejdete na sousední mapy.


METAR-TAF: